Climatologie pour Saint-Brevin les Pins
Jour • Résumé pour mai 9, 2017 Système :  Métrique    Anglais   Mixte
« - 1 jour
+ 1 jour »
Jour Semaine Mois Année Personnalisé
  Maximum : Minimum : Moyenne :
Température sous abri : -17.8 °C -13.8 °C -10.8 °C
Point de rosée : -17.8 °C -14.6 °C -13.5 °C
Humidité : Humidity % 50 % 73 %
Vitesse du vent : 0 km/h 0 km/h 17.1 km/h
Rafale : 0 km/h - -
Direction :- - East
Pression : 0 hPa 34164.7 hPa -
Précipitations : 0 mm    
Historical Graphs
 
 
Tableau de données pour mai 9, 2017
Heure Tempé Pt rosée Pression Vent Vitesse Rafale Humidité Taux pluie (/hr) Soleil
-17.8 °C -17.8 °C 0 hPa Calm     Humidity % 0 mm SolarRadiationWatts/m^2 W/m2 Conditions
00:00 -12.2 °C -13.8 °C 34635.4 hPa East 12.9 km/h 36.2 km/h 82 % 0 mm 0 W/m2
00:10 -12.3 °C -13.9 °C 34635.4 hPa East 18.2 km/h 31.1 km/h 82 % 0 mm 0 W/m2
00:15 -12.3 °C -13.9 °C 34635.4 hPa ENE 10.3 km/h 38.8 km/h 82 % 0 mm 0 W/m2
00:20 -12.3 °C -14 °C 34635.4 hPa ENE 23.3 km/h 38.8 km/h 82 % 0 mm 0 W/m2
00:25 -12.4 °C -13.9 °C 34635.4 hPa East 15.6 km/h 25.9 km/h 83 % 0 mm 0 W/m2
00:30 -12.4 °C -14 °C 34635.4 hPa ESE 18.2 km/h 28.5 km/h 83 % 0 mm 0 W/m2
00:35 -12.6 °C -14.1 °C 34635.4 hPa ENE 23.3 km/h 28.5 km/h 83 % 0 mm 0 W/m2
00:40 -12.6 °C -14 °C 34635.4 hPa NE 7.7 km/h 25.9 km/h 84 % 0 mm 0 W/m2
00:45 -12.7 °C -14.1 °C 34635.4 hPa East 5.1 km/h 28.5 km/h 84 % 0 mm 0 W/m2
00:50 -12.7 °C -14.1 °C 34625.2 hPa East 15.6 km/h 28.5 km/h 85 % 0 mm 0 W/m2
00:55 -12.7 °C -14 °C 34625.2 hPa East 15.6 km/h 25.9 km/h 86 % 0 mm 0 W/m2
01:00 -12.8 °C -14 °C 34625.2 hPa ENE 7.7 km/h 28.5 km/h 86 % 0 mm 0 W/m2
01:05 -12.8 °C -14.1 °C 34625.2 hPa East 23.3 km/h 28.5 km/h 86 % 0 mm 0 W/m2
01:10 -12.8 °C -14.1 °C 34625.2 hPa ENE 7.7 km/h 25.9 km/h 86 % 0 mm 0 W/m2
01:15 -12.8 °C -14.1 °C 34625.2 hPa ENE 18.2 km/h 25.9 km/h 86 % 0 mm 0 W/m2
01:20 -12.8 °C -14.1 °C 34625.2 hPa ENE 28.5 km/h 28.5 km/h 86 % 0 mm 0 W/m2
01:25 -12.9 °C -14.1 °C 34625.2 hPa NNE 5.1 km/h 33.6 km/h 86 % 0 mm 0 W/m2
01:30 -12.9 °C -14.1 °C 34625.2 hPa ENE 7.7 km/h 33.6 km/h 87 % 0 mm 0 W/m2
01:35 -12.9 °C -14.1 °C 34625.2 hPa ENE 25.9 km/h 25.9 km/h 87 % 0 mm 0 W/m2
01:40 -12.9 °C -14.1 °C 34625.2 hPa ENE 12.9 km/h 28.5 km/h 87 % 0 mm 0 W/m2
01:45 -13 °C -14.1 °C 34625.2 hPa East 15.6 km/h 28.5 km/h 87 % 0 mm 0 W/m2
01:50 -13 °C -14.1 °C 34625.2 hPa ENE 10.3 km/h 25.9 km/h 87 % 0 mm 0 W/m2
01:55 -13 °C -14.2 °C 34625.2 hPa ENE 10.3 km/h 28.5 km/h 87 % 0 mm 0 W/m2
02:00 -13.1 °C -14.2 °C 34611.7 hPa ENE 5.1 km/h 28.5 km/h 87 % 0 mm 0 W/m2
02:05 -13.2 °C -14.3 °C 34611.7 hPa East 12.9 km/h 23.3 km/h 87 % 0 mm 0 W/m2
02:10 -13.2 °C -14.2 °C 34611.7 hPa NE 18.2 km/h 23.3 km/h 88 % 0 mm 0 W/m2
02:15 -13.2 °C -14.2 °C 34611.7 hPa ENE 7.7 km/h 23.3 km/h 88 % 0 mm 0 W/m2
02:20 -13.2 °C -14.3 °C 34601.5 hPa ENE 5.1 km/h 23.3 km/h 88 % 0 mm 0 W/m2
02:25 -13.3 °C -14.2 °C 34601.5 hPa NE 5.1 km/h 23.3 km/h 89 % 0 mm 0 W/m2
02:30 -13.3 °C -14.2 °C 34601.5 hPa ENE 7.7 km/h 20.8 km/h 89 % 0 mm 0 W/m2
02:40 -13.4 °C -14.3 °C 34591.4 hPa ENE 5.1 km/h 23.3 km/h 89 % 0 mm 0 W/m2
02:45 -13.4 °C -14.3 °C 34601.5 hPa ENE 10.3 km/h 20.8 km/h 89 % 0 mm 0 W/m2
02:50 -13.3 °C -14.3 °C 34591.4 hPa ENE 7.7 km/h 23.3 km/h 89 % 0 mm 0 W/m2
02:55 -13.3 °C -14.2 °C 34591.4 hPa ESE 12.9 km/h 23.3 km/h 89 % 0 mm 0 W/m2
03:00 -13.3 °C -14.3 °C 34591.4 hPa ENE 12.9 km/h 23.3 km/h 89 % 0 mm 0 W/m2
03:05 -13.3 °C -14.2 °C 34591.4 hPa NE 10.3 km/h 28.5 km/h 89 % 0 mm 0 W/m2
03:10 -13.3 °C -14.3 °C 34591.4 hPa ENE 12.9 km/h 28.5 km/h 88 % 0 mm 0 W/m2
03:15 -13.2 °C -14.3 °C 34591.4 hPa ENE 5.1 km/h 25.9 km/h 88 % 0 mm 0 W/m2
03:20 -13.3 °C -14.4 °C 34591.4 hPa ENE 18.2 km/h 25.9 km/h 87 % 0 mm 0 W/m2
03:25 -13.4 °C -14.4 °C 34577.8 hPa ENE 10.3 km/h 23.3 km/h 88 % 0 mm 0 W/m2
03:30 -13.4 °C -14.5 °C 34577.8 hPa East 12.9 km/h 23.3 km/h 88 % 0 mm 0 W/m2
03:35 -13.5 °C -14.4 °C 34577.8 hPa ENE 12.9 km/h 23.3 km/h 89 % 0 mm 0 W/m2
03:40 -13.5 °C -14.4 °C 34577.8 hPa ENE 12.9 km/h 23.3 km/h 89 % 0 mm 0 W/m2
03:45 -13.5 °C -14.4 °C 34577.8 hPa East 2.6 km/h 18.2 km/h 89 % 0 mm 0 W/m2
03:50 -13.6 °C -14.5 °C 34577.8 hPa NE 2.6 km/h 18.2 km/h 89 % 0 mm 0 W/m2
03:55 -13.6 °C -14.4 °C 34577.8 hPa NE 2.6 km/h 18.2 km/h 90 % 0 mm 0 W/m2
04:00 -13.7 °C -14.5 °C 34577.8 hPa NE 2.6 km/h 15.6 km/h 90 % 0 mm 0 W/m2
04:05 -13.7 °C -14.6 °C 34577.8 hPa ENE 2.6 km/h 15.6 km/h 90 % 0 mm 0 W/m2
04:10 -13.8 °C -14.5 °C 34577.8 hPa ENE 12.9 km/h 15.6 km/h 91 % 0 mm 0 W/m2
04:15 -13.7 °C -14.4 °C 34577.8 hPa ENE 2.6 km/h 20.8 km/h 91 % 0 mm 0 W/m2
04:20 -13.7 °C -14.4 °C 34567.7 hPa East 15.6 km/h 20.8 km/h 91 % 0 mm 0 W/m2
04:30 -13.6 °C -14.3 °C 34567.7 hPa NNE 7.7 km/h 25.9 km/h 91 % 0 mm 0 W/m2
04:35 -13.6 °C -14.3 °C 34567.7 hPa ENE 2.6 km/h 25.9 km/h 91 % 0 mm 0 W/m2
04:40 -13.6 °C -14.3 °C 34567.7 hPa East 2.6 km/h 18.2 km/h 91 % 0 mm 0 W/m2
04:45 -13.5 °C -14.3 °C 34567.7 hPa East 5.1 km/h 20.8 km/h 91 % 0 mm 0 W/m2
04:50 -13.5 °C -14.3 °C 34567.7 hPa ENE 10.3 km/h 20.8 km/h 91 % 0 mm 0 W/m2
04:55 -13.6 °C -14.3 °C 34567.7 hPa ENE 5.1 km/h 20.8 km/h 91 % 0 mm 0 W/m2
05:00 -13.6 °C -14.3 °C 34567.7 hPa Calm   20.8 km/h 91 % 0 mm 0 W/m2
05:05 -13.6 °C -14.3 °C 34567.7 hPa Calm   18.2 km/h 91 % 0 mm 0 W/m2
05:10 -13.6 °C -14.3 °C 34567.7 hPa ENE 10.3 km/h 20.8 km/h 92 % 0 mm 0 W/m2
05:15 -13.6 °C -14.3 °C 34567.7 hPa East 12.9 km/h 20.8 km/h 92 % 0 mm 0 W/m2
05:20 -13.6 °C -14.3 °C 34567.7 hPa East 7.7 km/h 15.6 km/h 92 % 0 mm 0 W/m2
05:25 -13.5 °C -14.2 °C 34567.7 hPa East 2.6 km/h 15.6 km/h 92 % 0 mm 0 W/m2
05:30 -13.5 °C -14.2 °C 34567.7 hPa East 7.7 km/h 10.3 km/h 92 % 0 mm 0 W/m2
05:35 -13.4 °C -14.1 °C 34554.1 hPa NE 5.1 km/h 12.9 km/h 92 % 0 mm 0 W/m2
05:40 -13.4 °C -14.1 °C 34554.1 hPa ENE 5.1 km/h 12.9 km/h 92 % 0 mm 0 W/m2
05:45 -13.4 °C -14.1 °C 34554.1 hPa NE 5.1 km/h 12.9 km/h 92 % 0 mm 0 W/m2
05:50 -13.3 °C -14 °C 34554.1 hPa NE 10.3 km/h 18.2 km/h 92 % 0 mm 0 W/m2
05:55 -13.3 °C -14 °C 34554.1 hPa ENE 2.6 km/h 18.2 km/h 92 % 0 mm 0 W/m2
06:00 -13.3 °C -13.9 °C 34554.1 hPa ENE 10.3 km/h 20.8 km/h 92 % 0 mm 0 W/m2
06:05 -13.2 °C -13.9 °C 34554.1 hPa East 7.7 km/h 20.8 km/h 92 % 0 mm 0 W/m2
06:10 -13.2 °C -13.9 °C 34554.1 hPa Calm   20.8 km/h 92 % 0 mm 0 W/m2
06:15 -13.2 °C -13.9 °C 34554.1 hPa East 7.7 km/h 20.8 km/h 92 % 0 mm 0 W/m2
06:20 -13.2 °C -13.8 °C 34554.1 hPa ENE 20.8 km/h 20.8 km/h 92 % 0 mm 0 W/m2
06:25 -13.1 °C -13.7 °C 34554.1 hPa East 10.3 km/h 20.8 km/h 93 % 0 mm 0 W/m2
06:30 -13 °C -13.7 °C 34544 hPa NE 5.1 km/h 23.3 km/h 92 % 0 mm 0 W/m2
06:35 -13 °C -13.7 °C 34544 hPa ENE 18.2 km/h 28.5 km/h 92 % 0 mm 0 W/m2
06:40 -12.9 °C -13.7 °C 34544 hPa ENE 5.1 km/h 28.5 km/h 92 % 0 mm 0 W/m2
06:45 -12.9 °C -13.6 °C 34544 hPa East 7.7 km/h 28.5 km/h 92 % 0 mm 0 W/m2
06:50 -12.9 °C -13.6 °C 34544 hPa NE 2.6 km/h 28.5 km/h 92 % 0 mm 5 W/m2
06:55 -12.8 °C -13.5 °C 34544 hPa ENE 2.6 km/h 23.3 km/h 92 % 0 mm 9 W/m2
07:00 -12.8 °C -13.5 °C 34544 hPa East 20.8 km/h 20.8 km/h 92 % 0 mm 14 W/m2
07:05 -12.8 °C -13.4 °C 34544 hPa ENE 2.6 km/h 23.3 km/h 92 % 0 mm 21 W/m2
07:10 -12.7 °C -13.4 °C 34544 hPa NE 12.9 km/h 23.3 km/h 92 % 0 mm 23 W/m2
07:15 -12.7 °C -13.4 °C 34544 hPa ESE 7.7 km/h 23.3 km/h 92 % 0 mm 30 W/m2
07:20 -12.7 °C -13.4 °C 34544 hPa East 15.6 km/h 31.1 km/h 92 % 0 mm 60 W/m2
07:25 -12.7 °C -13.3 °C 34544 hPa NE 15.6 km/h 31.1 km/h 92 % 0 mm 42 W/m2
07:30 -12.7 °C -13.4 °C 34544 hPa ENE 15.6 km/h 25.9 km/h 91 % 0 mm 44 W/m2
07:35 -12.8 °C -13.6 °C 34544 hPa ENE 5.1 km/h 25.9 km/h 91 % 0 mm 49 W/m2
07:40 -12.8 °C -13.6 °C 34544 hPa East 23.3 km/h 28.5 km/h 91 % 0 mm 53 W/m2
07:45 -12.8 °C -13.6 °C 34544 hPa NE 5.1 km/h 31.1 km/h 91 % 0 mm 62 W/m2
07:50 -12.8 °C -13.6 °C 34544 hPa NE 2.6 km/h 31.1 km/h 91 % 0 mm 60 W/m2
07:55 -12.8 °C -13.6 °C 34544 hPa East 5.1 km/h 25.9 km/h 91 % 0 mm 63 W/m2
08:00 -12.7 °C -13.5 °C 34544 hPa NE 5.1 km/h 20.8 km/h 91 % 0 mm 69 W/m2
08:05 -12.7 °C -13.5 °C 34544 hPa ENE 12.9 km/h 25.9 km/h 91 % 0 mm 72 W/m2
08:10 -12.7 °C -13.5 °C 34544 hPa ENE 28.5 km/h 28.5 km/h 91 % 0 mm 74 W/m2
08:15 -12.7 °C -13.5 °C 34533.8 hPa SE 5.1 km/h 31.1 km/h 91 % 0 mm 77 W/m2
08:20 -12.7 °C -13.5 °C 34533.8 hPa ENE 5.1 km/h 31.1 km/h 90 % 0 mm 83 W/m2
08:25 -12.6 °C -13.4 °C 34533.8 hPa East 12.9 km/h 25.9 km/h 90 % 0 mm 86 W/m2
08:30 -12.6 °C -13.4 °C 34533.8 hPa East 18.2 km/h 25.9 km/h 90 % 0 mm 174 W/m2
08:35 -12.4 °C -13.3 °C 34533.8 hPa East 12.9 km/h 36.2 km/h 90 % 0 mm 269 W/m2
08:40 -12.3 °C -13.3 °C 34533.8 hPa ESE 15.6 km/h 36.2 km/h 89 % 0 mm 267 W/m2
08:45 -12.2 °C -13.2 °C 34533.8 hPa ENE 20.8 km/h 25.9 km/h 88 % 0 mm 276 W/m2
08:50 -12.1 °C -13.2 °C 34533.8 hPa ENE 2.6 km/h 25.9 km/h 87 % 0 mm 288 W/m2
08:55 -12 °C -13.3 °C 34533.8 hPa NE 7.7 km/h 28.5 km/h 86 % 0 mm 281 W/m2
09:00 -11.9 °C -13.2 °C 34533.8 hPa ENE 28.5 km/h 36.2 km/h 86 % 0 mm 323 W/m2
09:05 -11.9 °C -13.3 °C 34533.8 hPa ENE 20.8 km/h 36.2 km/h 85 % 0 mm 346 W/m2
09:10 -11.8 °C -13.1 °C 34520.3 hPa ESE 12.9 km/h 36.2 km/h 85 % 0 mm 260 W/m2
09:15 -11.7 °C -13 °C 34520.3 hPa East 15.6 km/h 28.5 km/h 85 % 0 mm 364 W/m2
09:20 -11.6 °C -13.2 °C 34520.3 hPa ENE 23.3 km/h 38.8 km/h 83 % 0 mm 179 W/m2
09:25 -11.7 °C -13.2 °C 34520.3 hPa ESE 20.8 km/h 41.4 km/h 83 % 0 mm 144 W/m2
09:30 -11.7 °C -13.3 °C 34520.3 hPa East 28.5 km/h 41.4 km/h 83 % 0 mm 123 W/m2
09:35 -11.7 °C -13.3 °C 34520.3 hPa East 20.8 km/h 38.8 km/h 83 % 0 mm 508 W/m2
09:40 -11.6 °C -13 °C 34510.1 hPa East 12.9 km/h 38.8 km/h 84 % 0 mm 359 W/m2
09:45 -11.6 °C -13.1 °C 34510.1 hPa ENE 18.2 km/h 38.8 km/h 83 % 0 mm 188 W/m2
09:50 -11.6 °C -13.3 °C 34510.1 hPa ENE 25.9 km/h 38.8 km/h 82 % 0 mm 269 W/m2
09:55 -11.5 °C -13.1 °C 34510.1 hPa East 20.8 km/h 38.8 km/h 83 % 0 mm 258 W/m2
10:00 -11.3 °C -13.1 °C 34510.1 hPa East 18.2 km/h 33.6 km/h 81 % 0 mm 237 W/m2
10:10 -11.2 °C -12.8 °C 34510.1 hPa East 12.9 km/h 33.6 km/h 82 % 0 mm 371 W/m2
10:20 -11.2 °C -12.9 °C 34496.6 hPa ENE 28.5 km/h 38.8 km/h 81 % 0 mm 188 W/m2
10:25 -11.2 °C -12.9 °C 34496.6 hPa East 20.8 km/h 46.7 km/h 81 % 0 mm 302 W/m2
10:30 -10.9 °C -12.7 °C 34496.6 hPa ESE 28.5 km/h 46.7 km/h 81 % 0 mm 724 W/m2
10:35 -10.7 °C -12.7 °C 34496.6 hPa ESE 18.2 km/h 46.7 km/h 79 % 0 mm 675 W/m2
10:40 -10.7 °C -12.8 °C 34496.6 hPa East 12.9 km/h 41.4 km/h 78 % 0 mm 197 W/m2
10:45 -11 °C -13.2 °C 34486.4 hPa ENE 12.9 km/h 41.4 km/h 77 % 0 mm 250 W/m2
10:50 -11.2 °C -13.2 °C 34496.6 hPa East 20.8 km/h 38.8 km/h 78 % 0 mm 190 W/m2
10:55 -11.2 °C -13.3 °C 34486.4 hPa East 38.8 km/h 41.4 km/h 78 % 0 mm 260 W/m2
11:00 -10.9 °C -12.7 °C 34486.4 hPa NE 12.9 km/h 41.4 km/h 80 % 0 mm 376 W/m2
11:05 -10.6 °C -13 °C 34486.4 hPa ENE 31.1 km/h 49.2 km/h 75 % 0 mm 754 W/m2
11:10 -10.5 °C -13.2 °C 34486.4 hPa ENE 2.6 km/h 49.2 km/h 73 % 0 mm 729 W/m2
11:15 -10.3 °C -12.7 °C 34486.4 hPa ENE 33.6 km/h 49.2 km/h 75 % 0 mm 740 W/m2
11:20 -10.2 °C -12.6 °C 34486.4 hPa ENE 20.8 km/h 46.7 km/h 75 % 0 mm 846 W/m2
11:25 -9.8 °C -12.3 °C 34476.3 hPa SE 18.2 km/h 38.8 km/h 74 % 0 mm 814 W/m2
11:30 -9.9 °C -12.7 °C 34476.3 hPa ENE 49.2 km/h 49.2 km/h 72 % 0 mm 798 W/m2
11:35 -9.9 °C -12.8 °C 34476.3 hPa ENE 36.2 km/h 51.8 km/h 71 % 0 mm 817 W/m2
11:40 -9.9 °C -12.9 °C 34476.3 hPa East 12.9 km/h 51.8 km/h 70 % 0 mm 786 W/m2
11:45 -9.8 °C -12.8 °C 34476.3 hPa ENE 25.9 km/h 46.7 km/h 70 % 0 mm 796 W/m2
11:50 -10.1 °C -12.8 °C 34476.3 hPa North 20.8 km/h 36.2 km/h 72 % 0 mm 847 W/m2
11:55 -10.1 °C -12.9 °C 34476.3 hPa ENE 28.5 km/h 44.1 km/h 71 % 0 mm 795 W/m2
12:00 -10.1 °C -13.1 °C 34462.7 hPa NNE 20.8 km/h 49.2 km/h 70 % 0 mm 722 W/m2
12:05 -9.8 °C -12.4 °C 34462.7 hPa East 15.6 km/h 49.2 km/h 73 % 0 mm 844 W/m2
12:10 -9.8 °C -12.8 °C 34462.7 hPa East 33.6 km/h 57 km/h 70 % 0 mm 833 W/m2
12:15 -9.8 °C -12.5 °C 34462.7 hPa East 18.2 km/h 57 km/h 73 % 0 mm 970 W/m2
12:20 -9.6 °C -12.3 °C 34462.7 hPa East 33.6 km/h 49.2 km/h 72 % 0 mm 872 W/m2
12:25 -9.6 °C -12.4 °C 34452.6 hPa East 36.2 km/h 46.7 km/h 72 % 0 mm 856 W/m2
12:30 -9.7 °C -12.8 °C 34452.6 hPa NE 25.9 km/h 54.4 km/h 69 % 0 mm 877 W/m2
12:35 -9.6 °C -12.5 °C 34452.6 hPa ENE 23.3 km/h 54.4 km/h 71 % 0 mm 889 W/m2
12:40 -9.4 °C -12.2 °C 34442.4 hPa NE 41.4 km/h 46.7 km/h 72 % 0 mm 923 W/m2
12:45 -9.4 °C -12.5 °C 34442.4 hPa ESE 12.9 km/h 57 km/h 69 % 0 mm 868 W/m2
12:50 -9.3 °C -12.3 °C 34442.4 hPa ESE 25.9 km/h 57 km/h 70 % 0 mm 838 W/m2
12:55 -9.3 °C -12.7 °C 34442.4 hPa SE 15.6 km/h 51.8 km/h 67 % 0 mm 904 W/m2
13:00 -9.3 °C -12.4 °C 34442.4 hPa ESE 36.2 km/h 51.8 km/h 69 % 0 mm 946 W/m2
13:05 -9.1 °C -12.7 °C 34428.8 hPa East 25.9 km/h 41.4 km/h 66 % 0 mm 1007 W/m2
13:10 -9.3 °C -12.7 °C 34428.8 hPa East 25.9 km/h 46.7 km/h 67 % 0 mm 1000 W/m2
13:15 -9.4 °C -12.9 °C 34428.8 hPa East 46.7 km/h 46.7 km/h 66 % 0 mm 313 W/m2
13:20 -9.5 °C -12.7 °C 34428.8 hPa ENE 7.7 km/h 54.4 km/h 69 % 0 mm 923 W/m2
13:25 -9.2 °C -12.7 °C 34428.8 hPa ENE 33.6 km/h 54.4 km/h 66 % 0 mm 311 W/m2
13:30 -9.5 °C -12.7 °C 34418.7 hPa ENE 31.1 km/h 49.2 km/h 68 % 0 mm 960 W/m2
13:35 -9.4 °C -12.7 °C 34418.7 hPa ESE 57 km/h 57 km/h 68 % 0 mm 947 W/m2
13:40 -9.2 °C -12.7 °C 34418.7 hPa East 18.2 km/h 57 km/h 66 % 0 mm 939 W/m2
13:45 -8.9 °C -12.7 °C 34418.7 hPa SE 23.3 km/h 57 km/h 64 % 0 mm 946 W/m2
13:50 -9.1 °C -12.7 °C 34418.7 hPa NE 20.8 km/h 46.7 km/h 65 % 0 mm 925 W/m2
13:55 -8.9 °C -12.6 °C 34405.1 hPa East 15.6 km/h 44.1 km/h 65 % 0 mm 940 W/m2
14:00 -8.7 °C -13 °C 34405.1 hPa ESE 33.6 km/h 51.8 km/h 60 % 0 mm 932 W/m2
14:05 -8.6 °C -12.7 °C 34405.1 hPa ENE 20.8 km/h 51.8 km/h 62 % 0 mm 991 W/m2
14:10 -8.7 °C -12.9 °C 34405.1 hPa East 41.4 km/h 51.8 km/h 60 % 0 mm 940 W/m2
14:15 -8.8 °C -13.3 °C 34405.1 hPa ENE 23.3 km/h 57 km/h 59 % 0 mm 958 W/m2
14:20 -8.8 °C -12.6 °C 34395 hPa ENE 36.2 km/h 57 km/h 64 % 0 mm 981 W/m2
14:25 -8.3 °C -12.5 °C 34395 hPa ENE 31.1 km/h 49.2 km/h 61 % 0 mm 956 W/m2
14:30 -8.5 °C -12.9 °C 34395 hPa SE 38.8 km/h 57 km/h 59 % 0 mm 954 W/m2
14:35 -8.4 °C -12.5 °C 34395 hPa ENE 28.5 km/h 57 km/h 62 % 0 mm 986 W/m2
14:40 -8.5 °C -12.9 °C 34384.8 hPa East 36.2 km/h 54.4 km/h 59 % 0 mm 367 W/m2
14:45 -8.8 °C -12.6 °C 34384.8 hPa NNE 7.7 km/h 54.4 km/h 64 % 0 mm 367 W/m2
14:50 -8.4 °C -12.6 °C 34384.8 hPa SE 10.3 km/h 44.1 km/h 61 % 0 mm 956 W/m2
14:55 -8.2 °C -12.8 °C 34384.8 hPa ENE 18.2 km/h 44.1 km/h 58 % 0 mm 1037 W/m2
15:00 -8.1 °C -12.9 °C 34371.3 hPa East 31.1 km/h 41.4 km/h 57 % 0 mm 870 W/m2
15:05 -8.6 °C -13.2 °C 34371.3 hPa ENE 28.5 km/h 46.7 km/h 58 % 0 mm 972 W/m2
15:10 -8.3 °C -13.1 °C 34371.3 hPa East 33.6 km/h 49.2 km/h 57 % 0 mm 988 W/m2
15:19 -8.3 °C -12.9 °C 34371.3 hPa ENE 33.6 km/h 33.6 km/h 58 % 0 mm 925 W/m2
15:25 -8.2 °C -13.5 °C 34361.1 hPa East 36.2 km/h 67.3 km/h 53 % 0 mm 874 W/m2
15:30 -8.1 °C -12.9 °C 34361.1 hPa East 12.9 km/h 67.3 km/h 57 % 0 mm 861 W/m2
15:40 -7.6 °C -12.6 °C 34347.6 hPa ENE 18.2 km/h 41.4 km/h 56 % 0 mm 904 W/m2
15:45 -7.7 °C -12.6 °C 34347.6 hPa NNE 20.8 km/h 41.4 km/h 57 % 0 mm 278 W/m2
15:50 -7.9 °C -13 °C 34347.6 hPa NE 18.2 km/h 44.1 km/h 55 % 0 mm 824 W/m2
16:00 -7.7 °C -12.9 °C 34337.4 hPa ENE 12.9 km/h 51.8 km/h 54 % 0 mm 796 W/m2
16:05 -7.8 °C -13.1 °C 34337.4 hPa NNE 12.9 km/h 51.8 km/h 54 % 0 mm 782 W/m2
16:10 -7.7 °C -12.9 °C 34337.4 hPa East 23.3 km/h 51.8 km/h 54 % 0 mm 772 W/m2
16:15 -7.8 °C -13.1 °C 34337.4 hPa SE 12.9 km/h 54.4 km/h 54 % 0 mm 763 W/m2
16:20 -7.6 °C -12.6 °C 34327.3 hPa East 23.3 km/h 54.4 km/h 56 % 0 mm 791 W/m2
16:25 -7.9 °C -13.2 °C 34327.3 hPa SE 10.3 km/h 46.7 km/h 54 % 0 mm 733 W/m2
16:30 -7.9 °C -13.2 °C 34327.3 hPa East 28.5 km/h 51.8 km/h 54 % 0 mm 752 W/m2
16:35 -7.7 °C -12.8 °C 34313.7 hPa NE 10.3 km/h 51.8 km/h 55 % 0 mm 673 W/m2
16:40 -7.7 °C -13 °C 34313.7 hPa ESE 23.3 km/h 54.4 km/h 54 % 0 mm 722 W/m2
16:45 -7.7 °C -12.7 °C 34303.6 hPa East 7.7 km/h 54.4 km/h 56 % 0 mm 666 W/m2
16:50 -7.6 °C -12.8 °C 34303.6 hPa ENE 23.3 km/h 41.4 km/h 54 % 0 mm 680 W/m2
16:55 -7.4 °C -12.4 °C 34293.4 hPa ENE 12.9 km/h 41.4 km/h 56 % 0 mm 682 W/m2
17:00 -7.3 °C -12.6 °C 34293.4 hPa ENE 33.6 km/h 44.1 km/h 54 % 0 mm 668 W/m2
17:05 -7.5 °C -12.9 °C 34293.4 hPa East 36.2 km/h 49.2 km/h 53 % 0 mm 619 W/m2
17:10 -7.6 °C -12.9 °C 34279.9 hPa NE 25.9 km/h 49.2 km/h 54 % 0 mm 645 W/m2
17:15 -7.6 °C -12.7 °C 34279.9 hPa East 10.3 km/h 46.7 km/h 55 % 0 mm 628 W/m2
17:20 -7.6 °C -12.8 °C 34279.9 hPa East 5.1 km/h 57 km/h 54 % 0 mm 591 W/m2
17:25 -7.6 °C -12.7 °C 34279.9 hPa East 28.5 km/h 57 km/h 55 % 0 mm 587 W/m2
17:30 -7.6 °C -13.1 °C 34269.7 hPa ENE 28.5 km/h 49.2 km/h 53 % 0 mm 587 W/m2
17:35 -7.4 °C -13.1 °C 34269.7 hPa South 20.8 km/h 46.7 km/h 52 % 0 mm 582 W/m2
17:40 -7.6 °C -12.7 °C 34256.2 hPa NE 23.3 km/h 49.2 km/h 55 % 0 mm 559 W/m2
17:45 -7.5 °C -12.6 °C 34256.2 hPa East 23.3 km/h 57 km/h 55 % 0 mm 554 W/m2
17:50 -7.6 °C -12.8 °C 34256.2 hPa ESE 44.1 km/h 57 km/h 54 % 0 mm 541 W/m2
17:55 -7.6 °C -13 °C 34256.2 hPa NE 36.2 km/h 54.4 km/h 53 % 0 mm 526 W/m2
18:00 -7.6 °C -13.2 °C 34246 hPa SSE 23.3 km/h 57 km/h 52 % 0 mm 512 W/m2
18:05 -7.4 °C -12.7 °C 34246 hPa ENE 36.2 km/h 57 km/h 54 % 0 mm 497 W/m2
18:10 -7.6 °C -12.9 °C 34246 hPa ENE 36.2 km/h 49.2 km/h 53 % 0 mm 483 W/m2
18:15 -7.6 °C -13.1 °C 34235.8 hPa ENE 12.9 km/h 49.2 km/h 52 % 0 mm 468 W/m2
18:20 -7.6 °C -13.1 °C 34235.8 hPa East 25.9 km/h 46.7 km/h 52 % 0 mm 455 W/m2
18:25 -7.7 °C -13.1 °C 34235.8 hPa NNE 25.9 km/h 38.8 km/h 53 % 0 mm 436 W/m2
18:30 -7.7 °C -13.1 °C 34235.8 hPa ENE 33.6 km/h 57 km/h 53 % 0 mm 397 W/m2
18:35 -7.7 °C -13.3 °C 34222.3 hPa NE 18.2 km/h 57 km/h 52 % 0 mm 406 W/m2
18:45 -7.7 °C -12.9 °C 34222.3 hPa ENE 25.9 km/h 62.1 km/h 54 % 0 mm 381 W/m2
18:50 -7.7 °C -13.4 °C 34222.3 hPa East 33.6 km/h 54.4 km/h 51 % 0 mm 369 W/m2
18:55 -7.8 °C -13.3 °C 34222.3 hPa ESE 25.9 km/h 49.2 km/h 52 % 0 mm 343 W/m2
19:00 -7.8 °C -13.4 °C 34212.1 hPa SE 20.8 km/h 46.7 km/h 52 % 0 mm 336 W/m2
19:05 -7.8 °C -13.5 °C 34212.1 hPa East 20.8 km/h 44.1 km/h 51 % 0 mm 323 W/m2
19:10 -7.8 °C -13.7 °C 34212.1 hPa East 12.9 km/h 44.1 km/h 50 % 0 mm 302 W/m2
19:15 -7.9 °C -13.8 °C 34212.1 hPa ESE 33.6 km/h 44.1 km/h 50 % 0 mm 294 W/m2
19:20 -8 °C -13.8 °C 34212.1 hPa ENE 23.3 km/h 49.2 km/h 50 % 0 mm 279 W/m2
19:25 -7.9 °C -13.7 °C 34198.6 hPa ESE 20.8 km/h 49.2 km/h 51 % 0 mm 264 W/m2
19:30 -8.1 °C -13.9 °C 34198.6 hPa East 33.6 km/h 49.2 km/h 50 % 0 mm 246 W/m2
19:35 -8.1 °C -13.8 °C 34198.6 hPa NNE 33.6 km/h 51.8 km/h 51 % 0 mm 237 W/m2
19:40 -8.2 °C -13.9 °C 34198.6 hPa East 28.5 km/h 57 km/h 51 % 0 mm 213 W/m2
19:45 -8.2 °C -13.8 °C 34188.4 hPa East 20.8 km/h 57 km/h 52 % 0 mm 188 W/m2
19:50 -8.3 °C -13.8 °C 34188.4 hPa East 46.7 km/h 59.5 km/h 52 % 0 mm 153 W/m2
19:55 -8.4 °C -13.9 °C 34188.4 hPa ENE 31.1 km/h 59.5 km/h 52 % 0 mm 149 W/m2
20:00 -8.5 °C -13.7 °C 34188.4 hPa ESE 12.9 km/h 46.7 km/h 54 % 0 mm 155 W/m2
20:05 -8.5 °C -13.9 °C 34188.4 hPa NE 18.2 km/h 44.1 km/h 53 % 0 mm 139 W/m2
20:10 -8.6 °C -13.9 °C 34188.4 hPa ENE 23.3 km/h 44.1 km/h 53 % 0 mm 98 W/m2
20:20 -8.7 °C -13.8 °C 34188.4 hPa East 28.5 km/h 46.7 km/h 55 % 0 mm 62 W/m2
20:25 -8.8 °C -13.8 °C 34188.4 hPa ENE 10.3 km/h 46.7 km/h 55 % 0 mm 39 W/m2
20:30 -8.9 °C -13.8 °C 34188.4 hPa East 23.3 km/h 46.7 km/h 56 % 0 mm 37 W/m2
20:35 -8.9 °C -13.7 °C 34188.4 hPa Calm   33.6 km/h 57 % 0 mm 35 W/m2
20:40 -9.1 °C -13.8 °C 34188.4 hPa ENE 10.3 km/h 36.2 km/h 57 % 0 mm 30 W/m2
20:45 -9.1 °C -13.8 °C 34188.4 hPa East 12.9 km/h 36.2 km/h 57 % 0 mm 30 W/m2
20:50 -9.2 °C -13.7 °C 34188.4 hPa ENE 23.3 km/h 33.6 km/h 59 % 0 mm 30 W/m2
20:55 -9.3 °C -13.7 °C 34178.3 hPa East 20.8 km/h 38.8 km/h 59 % 0 mm 26 W/m2
21:00 -9.3 °C -13.8 °C 34178.3 hPa East 15.6 km/h 46.7 km/h 59 % 0 mm 23 W/m2
21:05 -9.4 °C -13.9 °C 34178.3 hPa NE 25.9 km/h 46.7 km/h 58 % 0 mm 19 W/m2
21:10 -9.4 °C -13.8 °C 34178.3 hPa ESE 10.3 km/h 38.8 km/h 59 % 0 mm 16 W/m2
21:15 -9.5 °C -13.8 °C 34178.3 hPa East 23.3 km/h 38.8 km/h 60 % 0 mm 11 W/m2
21:20 -9.6 °C -13.8 °C 34164.7 hPa East 28.5 km/h 38.8 km/h 60 % 0 mm 7 W/m2
21:25 -9.6 °C -13.9 °C 34178.3 hPa East 23.3 km/h 38.8 km/h 60 % 0 mm 5 W/m2
21:30 -9.7 °C -13.9 °C 34178.3 hPa ESE 15.6 km/h 38.8 km/h 60 % 0 mm 0 W/m2
21:35 -9.8 °C -13.9 °C 34178.3 hPa ESE 25.9 km/h 38.8 km/h 61 % 0 mm 0 W/m2
21:40 -9.9 °C -13.9 °C 34178.3 hPa East 15.6 km/h 31.1 km/h 62 % 0 mm 0 W/m2
21:45 -9.9 °C -13.9 °C 34178.3 hPa ENE 20.8 km/h 31.1 km/h 62 % 0 mm 0 W/m2
21:50 -9.9 °C -13.9 °C 34178.3 hPa ESE 7.7 km/h 28.5 km/h 62 % 0 mm 0 W/m2
21:55 -10.1 °C -13.9 °C 34178.3 hPa NE 10.3 km/h 25.9 km/h 63 % 0 mm 0 W/m2
22:00 -10.2 °C -14.1 °C 34178.3 hPa ESE 12.9 km/h 28.5 km/h 63 % 0 mm 0 W/m2
22:05 -10.2 °C -13.9 °C 34178.3 hPa East 20.8 km/h 28.5 km/h 64 % 0 mm 0 W/m2
22:15 -10.4 °C -14 °C 34178.3 hPa ENE 10.3 km/h 28.5 km/h 65 % 0 mm 0 W/m2
22:20 -10.4 °C -13.9 °C 34178.3 hPa ESE 5.1 km/h 25.9 km/h 66 % 0 mm 0 W/m2
22:25 -10.5 °C -13.9 °C 34178.3 hPa ENE 20.8 km/h 25.9 km/h 66 % 0 mm 0 W/m2
22:30 -10.4 °C -13.9 °C 34178.3 hPa ENE 7.7 km/h 28.5 km/h 66 % 0 mm 0 W/m2
22:35 -10.5 °C -13.9 °C 34178.3 hPa East 7.7 km/h 28.5 km/h 66 % 0 mm 0 W/m2
22:40 -10.6 °C -14.1 °C 34178.3 hPa ENE 5.1 km/h 23.3 km/h 66 % 0 mm 0 W/m2
22:45 -10.7 °C -13.9 °C 34178.3 hPa East 12.9 km/h 28.5 km/h 67 % 0 mm 0 W/m2
22:50 -10.7 °C -14 °C 34178.3 hPa East 10.3 km/h 28.5 km/h 67 % 0 mm 0 W/m2
22:55 -10.8 °C -14 °C 34188.4 hPa East 5.1 km/h 23.3 km/h 68 % 0 mm 0 W/m2
23:00 -10.9 °C -14 °C 34188.4 hPa ENE 7.7 km/h 23.3 km/h 69 % 0 mm 0 W/m2
23:05 -10.9 °C -14 °C 34188.4 hPa ENE 7.7 km/h 23.3 km/h 69 % 0 mm 0 W/m2
23:10 -11 °C -14.1 °C 34188.4 hPa East 2.6 km/h 18.2 km/h 69 % 0 mm 0 W/m2
23:15 -11.1 °C -14 °C 34188.4 hPa East 7.7 km/h 18.2 km/h 70 % 0 mm 0 W/m2
23:20 -11.2 °C -14 °C 34188.4 hPa East 2.6 km/h 18.2 km/h 71 % 0 mm 0 W/m2
23:25 -11.3 °C -14.1 °C 34188.4 hPa Calm   18.2 km/h 72 % 0 mm 0 W/m2
23:30 -11.6 °C -14.2 °C 34188.4 hPa ENE 2.6 km/h 7.7 km/h 73 % 0 mm 0 W/m2
23:35 -11.8 °C -14.1 °C 34188.4 hPa ENE 5.1 km/h 7.7 km/h 75 % 0 mm 0 W/m2
23:40 -11.7 °C -14.1 °C 34188.4 hPa Calm   10.3 km/h 75 % 0 mm 0 W/m2
23:45 -11.8 °C -14.2 °C 34178.3 hPa Calm   10.3 km/h 75 % 0 mm 0 W/m2
23:50 -11.9 °C -14.2 °C 34178.3 hPa ENE 2.6 km/h 10.3 km/h 76 % 0 mm 0 W/m2
23:55 -12.2 °C -14.3 °C 34178.3 hPa East 5.1 km/h 10.3 km/h 77 % 0 mm 0 W/m2
Avec l'autorisation de Weather Underground - 1.75 mb